User: anonymous   Login
Location: Chiroubles
(46.1812°N, 4.6660°E)
Time: 01:53:30
(UTC+00:00)
Language:

Meteor 1-23 Rocket - Orbit

View from above orbital plane
View from above orbital plane
View from above satellite
View from above satellite

Ground track
Ground track

The orbit data is extracted from the following two-line orbital elements,

1  8520U 75124B   20302.59866843 -.00000031 +00000-0 -25444-4 0  9999
2  8520 081.2905 059.3600 0037916 068.3183 292.2018 14.08992051304055
Epoch (UTC): 28 October 2020 14:22:04
Eccentricity: 0.0037916
inclination: 81.2905°
perigee height: 835 km
apogee height: 890 km
right ascension of ascending node: 59.3600°
argument of perigee: 68.3183°
revolutions per day: 14.08992051
mean anomaly at epoch: 292.2018°
orbit number at epoch: 30405

The dashed part of the orbit path shows where the satellite is in the earth's shadow,  

DLR